Regional Weather Roundup
Issued by NWS

Home | Current Version | Previous Version | Text Only | Print | Product List | Glossary Off
Versions: 1 2 3 4 5 6 7 8 9 10 11 12 13 14 15 16 17 18 19 20 21 22 23 24 25 26 27 28 29 30 31 32 33 34 35 36 37 38 39 40 41 42 43 44 45 46 47 48 49 50

000
ASUS43 KIND 211500
RWRIN

WEATHER ROUNDUP FOR INDIANA
NATIONAL WEATHER SERVICE INDIANAPOLIS IN
1100 AM EDT SAT OCT 21 2017

NOTE: "FAIR" INDICATES FEW OR NO CLOUDS BELOW 12,000 FEET WITH NO
SIGNIFICANT WEATHER AND/OR OBSTRUCTIONS TO VISIBILITY.

* - STATION DOES NOT REPORT WEATHER SUCH AS PRECIPITATION OR FOG.

+ - STATION NOT QUALITY CONTROLLED BY THE NATIONAL WEATHER SERVICE.
    USE DATA WITH CAUTION...ESPECIALLY DEWPOINT AND RELATIVE
    HUMIDITY OBSERVATIONS.

INZ001>003-010>013-019-020-211600-
NORTHWEST INDIANA

CITY           SKY/WX    TMP DP  RH WIND       PRES   REMARKS
GARY /AIRPORT/ CLOUDY    66  46  48 S14       30.10F
MICHIGAN CITY+ CLOUDY    63  48  59 S8        30.13S
MONTICELLO +   MOSUNNY   62  49  63 S6        30.15F
RENSSELAER +   PTSUNNY   64  43  45 S14       30.14S

$$

LMZ046-743>745-211600-
SOUTHERN LAKE MICHIGAN

STATION/POSITION TIME  TEMP    WIND        PRES    WAVE
                       AIR SEA DIR/SP/G            HT
                 (UTC) (F)     (DEG/KT/KT) (MB)    (FT)
BURNS HARBOR     1440   63     180/ 12/ 18 1020.0S
MICHIGAN CITY    1430   62     160/ 12/ 15   N/A
5NW MICH CITY    1450   60 58  180/ 12/ 16   N/A     1

$$

INZ004-005-014>016-021>024-211600-
NORTH CENTRAL INDIANA

CITY           SKY/WX    TMP DP  RH WIND       PRES   REMARKS
ELKHART        SUNNY     66  48  52 S9        30.16F
GOSHEN         MOSUNNY   65  48  54 S10       30.17F
PERU/GRISSOM   MOSUNNY   65  51  60 S12       30.18S
SOUTH BEND     PTSUNNY   62  50  64 S10       30.15F

$$

INZ006>009-017-018-025>027-211600-
NORTHEAST INDIANA

CITY           SKY/WX    TMP DP  RH WIND       PRES   REMARKS
FORT WAYNE     CLOUDY    65  52  62 S10       30.20F
KENDALLVILLE + CLOUDY    63  53  70 S7        30.20F

$$

INZ028-029-035-036-043>045-051>053-211600-
WEST CENTRAL INDIANA

CITY           SKY/WX    TMP DP  RH WIND       PRES   REMARKS
LAFAYETTE      PTSUNNY   62  51  67 S9        30.15F
TERRE HAUTE    MOSUNNY   61  51  70 S10       30.17F

$$

INZ030>032-037>040-046>048-054>057-064-065-211600-
CENTRAL INDIANA

CITY           SKY/WX    TMP DP  RH WIND       PRES   REMARKS
ANDERSON       MOSUNNY   66  52  59 S8        30.22S
COLUMBUS       SUNNY    N/A N/A N/A CALM      30.23S
GREENWOOD *+   CLOUDY    65  54  65 S6        30.22F
INDIANAPOLIS   MOSUNNY   61  52  72 S6        30.20F
-EAGLE CREEK   MOSUNNY   62  50  64 SE7       30.19F
KOKOMO +       CLOUDY    63  53  70 S9        30.19F
MT COMFORT *+  MOSUNNY   63  55  77 S7        30.22S
SHELBYVILLE    CLOUDY    63  51  65 S8        30.22S

$$

INZ033-034-041-042-049-050-058-059-211600-
EAST CENTRAL INDIANA

CITY           SKY/WX    TMP DP  RH WIND       PRES   REMARKS
MUNCIE         MOSUNNY   70  51  51 S8        30.22R
RICHMOND +     CLOUDY    63  54  72 S9        30.25R

$$

INZ060-061-067>069-081>083-085>088-211600-
SOUTHWEST INDIANA

CITY           SKY/WX    TMP DP  RH WIND       PRES   REMARKS
EVANSVILLE     PTSUNNY   63  50  62 CALM      30.20S
HUNTINGBURG +  CLOUDY    61  51  70 S7        30.22R

$$

INZ062-063-066-070>080-084-089>092-211600-
SOUTH CENTRAL AND SOUTHEAST INDIANA

CITY           SKY/WX    TMP DP  RH WIND       PRES   REMARKS
BLOOMINGTON    PTSUNNY   64  50  60 SE9       30.21S
MADISON *+     MOSUNNY   64  50  59 S5        30.27S
SEYMOUR +      PTSUNNY   63  52  67 SE5       30.24S

$$





USA.gov is the U.S. government's official web portal to all federal, state and local government web resources and services.